AAL3527 KMSY-KBHM

Flight info

Callsign AAL3527
Flight time 0h 46m
Altitude 35000
Route LBY MEI LYMPH
Aircraft B738/M-SDE2E3FGHIRWXY/LB1

Departure

Time 2026-04-25 14:45
Airport Louis Armstrong New Orleans International Airport (KMSY)

Arrival

Time 2026-04-25 15:31
Airport Birmingham-Shuttlesworth International Airport (KBHM)
Time Latitude Longitude Altitude Speed Heading
2026-04-25 14:12 29.99498 -90.25336 12 ft 0 kts 262°
2026-04-25 14:31 29.99498 -90.25334 11 ft 1 kts 262°
2026-04-25 14:32 29.99500 -90.25317 11 ft 2 kts 262°
2026-04-25 14:32 29.99502 -90.25300 11 ft 2 kts 262°
2026-04-25 14:32 29.99505 -90.25283 11 ft 2 kts 262°
2026-04-25 14:32 29.99507 -90.25266 11 ft 2 kts 262°
2026-04-25 14:33 29.99509 -90.25249 11 ft 2 kts 262°
2026-04-25 14:33 29.99511 -90.25231 11 ft 2 kts 262°
2026-04-25 14:33 29.99513 -90.25220 11 ft 0 kts 262°
2026-04-25 14:33 29.99507 -90.25235 11 ft 3 kts 237°
2026-04-25 14:34 29.99485 -90.25250 11 ft 3 kts 191°
2026-04-25 14:34 29.99455 -90.25247 11 ft 3 kts 173°
2026-04-25 14:34 29.99445 -90.25246 11 ft 0 kts 173°
2026-04-25 14:37 29.99441 -90.25245 11 ft 2 kts 173°
2026-04-25 14:37 29.99406 -90.25240 11 ft 6 kts 173°
2026-04-25 14:37 29.99357 -90.25233 11 ft 7 kts 173°
2026-04-25 14:38 29.99305 -90.25233 11 ft 8 kts 190°
2026-04-25 14:38 29.99244 -90.25263 11 ft 10 kts 216°
2026-04-25 14:38 29.99201 -90.25343 11 ft 12 kts 260°
2026-04-25 14:38 29.99202 -90.25452 11 ft 14 kts 274°
2026-04-25 14:39 29.99208 -90.25565 11 ft 14 kts 274°
2026-04-25 14:39 29.99215 -90.25681 11 ft 14 kts 275°
2026-04-25 14:39 29.99234 -90.25789 11 ft 11 kts 286°
2026-04-25 14:39 29.99282 -90.25851 11 ft 10 kts 343°
2026-04-25 14:40 29.99344 -90.25908 11 ft 13 kts 289°
2026-04-25 14:40 29.99373 -90.26025 11 ft 16 kts 285°
2026-04-25 14:40 29.99405 -90.26160 11 ft 18 kts 285°
2026-04-25 14:40 29.99442 -90.26311 11 ft 20 kts 286°
2026-04-25 14:41 29.99480 -90.26471 11 ft 20 kts 284°
2026-04-25 14:41 29.99518 -90.26633 11 ft 21 kts 286°
2026-04-25 14:41 29.99558 -90.26798 11 ft 21 kts 285°
2026-04-25 14:41 29.99598 -90.26960 11 ft 21 kts 287°
2026-04-25 14:42 29.99640 -90.27129 11 ft 23 kts 285°
2026-04-25 14:42 29.99669 -90.27254 11 ft 24 kts 285°
2026-04-25 14:42 29.99733 -90.27515 11 ft 25 kts 285°
2026-04-25 14:42 29.99780 -90.27712 11 ft 25 kts 285°
2026-04-25 14:43 29.99825 -90.27895 11 ft 17 kts 286°
2026-04-25 14:43 29.99854 -90.28014 11 ft 12 kts 285°
2026-04-25 14:43 29.99843 -90.28101 11 ft 11 kts 213°
2026-04-25 14:43 29.99766 -90.28127 11 ft 11 kts 195°
2026-04-25 14:44 29.99692 -90.28149 11 ft 10 kts 194°
2026-04-25 14:44 29.99646 -90.28108 11 ft 9 kts 104°
2026-04-25 14:44 29.99620 -90.27996 11 ft 33 kts 106°
2026-04-25 14:44 29.99494 -90.27480 11 ft 98 kts 105°
2026-04-25 14:45 29.99262 -90.26509 11 ft 150 kts 106°
2026-04-25 14:45 29.98945 -90.25208 310 ft 169 kts 107°
2026-04-25 14:45 29.98666 -90.23940 1013 ft 166 kts 99°
2026-04-25 14:45 29.98778 -90.22592 1507 ft 178 kts 70°
2026-04-25 14:46 29.99649 -90.21530 2054 ft 193 kts 22°
2026-04-25 14:46 30.00993 -90.21381 2603 ft 204 kts 352°
2026-04-25 14:46 30.02487 -90.21596 2969 ft 224 kts 351°
2026-04-25 14:46 30.04051 -90.21764 3350 ft 234 kts 358°
2026-04-25 14:47 30.05675 -90.21582 4274 ft 236 kts 12°
2026-04-25 14:47 30.06731 -90.21208 4818 ft 242 kts 20°
2026-04-25 14:47 30.08812 -90.20019 5677 ft 262 kts 27°
2026-04-25 14:47 30.10430 -90.18951 6342 ft 275 kts 27°
2026-04-25 14:48 30.12140 -90.17825 7108 ft 285 kts 27°
2026-04-25 14:48 30.13863 -90.16704 7951 ft 290 kts 27°
2026-04-25 14:48 30.15615 -90.15572 8831 ft 293 kts 26°
2026-04-25 14:48 30.17417 -90.14415 9660 ft 297 kts 26°
2026-04-25 14:49 30.19213 -90.13264 10493 ft 301 kts 25°
2026-04-25 14:49 30.21055 -90.12083 11305 ft 304 kts 25°
2026-04-25 14:49 30.22900 -90.10899 12134 ft 307 kts 24°
2026-04-25 14:49 30.24770 -90.09701 12809 ft 314 kts 24°
2026-04-25 14:50 30.26725 -90.08455 13283 ft 329 kts 24°
2026-04-25 14:50 30.28782 -90.07147 13700 ft 343 kts 24°
2026-04-25 14:50 30.30906 -90.05793 14307 ft 352 kts 24°
2026-04-25 14:50 30.33052 -90.04417 15042 ft 355 kts 24°
2026-04-25 14:51 30.35198 -90.03037 15838 ft 357 kts 24°
2026-04-25 14:51 30.37386 -90.01631 16520 ft 362 kts 24°
2026-04-25 14:51 30.39588 -90.00215 17303 ft 364 kts 24°
2026-04-25 14:51 30.41812 -89.98789 17996 ft 368 kts 24°
2026-04-25 14:52 30.44048 -89.97353 18686 ft 370 kts 24°
2026-04-25 14:52 30.46311 -89.95899 19358 ft 373 kts 24°
2026-04-25 14:52 30.48585 -89.94440 19925 ft 378 kts 24°
2026-04-25 14:52 30.50120 -89.93456 20337 ft 381 kts 24°
2026-04-25 14:53 30.53220 -89.91464 21164 ft 385 kts 24°
2026-04-25 14:53 30.55570 -89.89952 21748 ft 388 kts 24°
2026-04-25 14:53 30.57962 -89.88412 22346 ft 391 kts 24°
2026-04-25 14:53 30.60331 -89.86885 22914 ft 394 kts 24°
2026-04-25 14:54 30.62731 -89.85337 23496 ft 397 kts 24°
2026-04-25 14:54 30.65149 -89.83778 24035 ft 400 kts 24°
2026-04-25 14:54 30.67608 -89.82192 24560 ft 404 kts 24°
2026-04-25 14:54 30.70051 -89.80614 25060 ft 407 kts 24°
2026-04-25 14:55 30.72550 -89.78999 25657 ft 408 kts 24°
2026-04-25 14:55 30.75024 -89.77397 26316 ft 407 kts 24°
2026-04-25 14:55 30.77471 -89.75811 26948 ft 405 kts 24°
2026-04-25 14:55 30.79908 -89.74228 27607 ft 403 kts 24°
2026-04-25 14:56 30.82366 -89.72633 28225 ft 401 kts 24°
2026-04-25 14:56 30.84767 -89.71075 28730 ft 401 kts 24°
2026-04-25 14:56 30.87234 -89.69476 29256 ft 401 kts 24°
2026-04-25 14:56 30.89646 -89.67909 29843 ft 398 kts 24°
2026-04-25 14:57 30.92049 -89.66347 30338 ft 397 kts 24°
2026-04-25 14:57 30.94468 -89.64776 30722 ft 399 kts 24°
2026-04-25 14:57 30.96887 -89.63205 31105 ft 400 kts 25°
2026-04-25 14:57 30.99325 -89.61620 31478 ft 402 kts 25°
2026-04-25 14:58 31.01771 -89.60030 31838 ft 403 kts 25°
2026-04-25 14:58 31.04218 -89.58435 32279 ft 402 kts 25°
2026-04-25 14:58 31.06657 -89.56845 32631 ft 403 kts 25°
2026-04-25 14:58 31.09105 -89.55250 33025 ft 403 kts 25°
2026-04-25 14:59 31.11571 -89.53641 33381 ft 403 kts 25°
2026-04-25 14:59 31.14045 -89.52026 33728 ft 404 kts 25°
2026-04-25 14:59 31.16516 -89.50411 34076 ft 404 kts 25°
2026-04-25 14:59 31.18941 -89.48825 34435 ft 404 kts 25°
2026-04-25 15:00 31.21452 -89.47182 34727 ft 406 kts 25°
2026-04-25 15:00 31.23931 -89.45561 34922 ft 409 kts 25°
2026-04-25 15:00 31.28999 -89.42247 34924 ft 422 kts 25°
2026-04-25 15:01 31.34276 -89.38792 34921 ft 436 kts 25°
2026-04-25 15:01 31.39655 -89.35264 34917 ft 449 kts 25°
2026-04-25 15:02 31.45261 -89.31719 34919 ft 461 kts 23°
2026-04-25 15:02 31.51127 -89.28477 34925 ft 463 kts 21°
2026-04-25 15:03 31.56989 -89.25344 34926 ft 463 kts 21°
2026-04-25 15:03 31.62846 -89.22186 34926 ft 464 kts 21°
2026-04-25 15:04 31.68709 -89.18985 34922 ft 465 kts 22°
2026-04-25 15:04 31.74593 -89.15745 34927 ft 465 kts 22°
2026-04-25 15:05 31.80470 -89.12492 34931 ft 465 kts 22°
2026-04-25 15:06 31.89261 -89.07612 34931 ft 465 kts 22°
2026-04-25 15:06 31.95124 -89.04351 34936 ft 464 kts 22°
2026-04-25 15:07 32.00980 -89.01090 34937 ft 464 kts 22°
2026-04-25 15:07 32.06821 -88.97832 34938 ft 463 kts 22°
2026-04-25 15:08 32.12652 -88.94577 34932 ft 463 kts 22°
2026-04-25 15:08 32.18513 -88.91301 34926 ft 467 kts 22°
2026-04-25 15:09 32.24404 -88.88003 34924 ft 466 kts 22°
2026-04-25 15:09 32.33210 -88.83044 34913 ft 468 kts 23°
2026-04-25 15:10 32.38717 -88.78731 34907 ft 478 kts 40°
2026-04-25 15:11 32.45324 -88.69881 34912 ft 479 kts 50°
2026-04-25 15:11 32.49420 -88.63679 34915 ft 480 kts 50°
2026-04-25 15:12 32.55622 -88.54279 34772 ft 484 kts 50°
2026-04-25 15:12 32.57715 -88.51135 34184 ft 485 kts 50°
2026-04-25 15:12 32.59112 -88.49044 33800 ft 482 kts 50°
2026-04-25 15:13 32.61878 -88.44908 33100 ft 478 kts 50°
2026-04-25 15:13 32.66012 -88.38740 32055 ft 482 kts 49°
2026-04-25 15:13 32.68092 -88.35638 31533 ft 483 kts 49°
2026-04-25 15:14 32.70201 -88.32491 31005 ft 482 kts 49°
2026-04-25 15:14 32.72293 -88.29362 30479 ft 481 kts 49°
2026-04-25 15:14 32.74345 -88.26293 29967 ft 481 kts 48°
2026-04-25 15:14 32.76429 -88.23176 29440 ft 482 kts 48°
2026-04-25 15:15 32.78528 -88.20036 28919 ft 482 kts 48°
2026-04-25 15:15 32.80622 -88.16899 28391 ft 482 kts 48°
2026-04-25 15:15 32.82685 -88.13805 27877 ft 479 kts 48°
2026-04-25 15:15 32.84732 -88.10730 27362 ft 475 kts 48°
2026-04-25 15:16 32.86777 -88.07656 26837 ft 471 kts 48°
2026-04-25 15:16 32.88786 -88.04632 26329 ft 465 kts 47°
2026-04-25 15:16 32.92744 -87.98667 25306 ft 456 kts 47°
2026-04-25 15:17 32.96642 -87.92793 24111 ft 452 kts 47°
2026-04-25 15:17 32.98599 -87.89839 23466 ft 448 kts 47°
2026-04-25 15:17 33.00514 -87.86947 22832 ft 445 kts 47°
2026-04-25 15:18 33.02418 -87.84070 22205 ft 441 kts 47°
2026-04-25 15:18 33.06155 -87.78417 20966 ft 434 kts 48°
2026-04-25 15:18 33.08007 -87.75614 20347 ft 430 kts 48°
2026-04-25 15:19 33.09848 -87.72825 19729 ft 427 kts 48°
2026-04-25 15:19 33.11069 -87.70973 19321 ft 425 kts 48°
2026-04-25 15:19 33.13508 -87.67274 18470 ft 417 kts 49°
2026-04-25 15:19 33.15260 -87.64606 17867 ft 403 kts 48°
2026-04-25 15:20 33.16954 -87.62026 17265 ft 391 kts 48°
2026-04-25 15:20 33.18612 -87.59499 16664 ft 380 kts 48°
2026-04-25 15:20 33.20226 -87.57038 16056 ft 370 kts 48°
2026-04-25 15:20 33.21813 -87.54621 15443 ft 361 kts 47°
2026-04-25 15:21 33.23329 -87.52314 14846 ft 353 kts 47°
2026-04-25 15:21 33.24833 -87.50025 14238 ft 347 kts 47°
2026-04-25 15:21 33.26312 -87.47770 13603 ft 342 kts 47°
2026-04-25 15:21 33.27749 -87.45570 12987 ft 337 kts 47°
2026-04-25 15:22 33.29181 -87.43384 12386 ft 332 kts 47°
2026-04-25 15:22 33.30595 -87.41228 11779 ft 326 kts 47°
2026-04-25 15:22 33.31968 -87.39136 11175 ft 320 kts 47°
2026-04-25 15:22 33.33328 -87.37057 10560 ft 315 kts 47°
2026-04-25 15:23 33.34656 -87.35026 9958 ft 310 kts 48°
2026-04-25 15:23 33.35980 -87.33006 9340 ft 305 kts 48°
2026-04-25 15:23 33.37254 -87.30982 8727 ft 302 kts 51°
2026-04-25 15:23 33.38474 -87.28970 8120 ft 298 kts 51°
2026-04-25 15:24 33.39690 -87.26979 7506 ft 295 kts 51°
2026-04-25 15:24 33.40922 -87.24986 6885 ft 292 kts 50°
2026-04-25 15:24 33.42056 -87.23015 6300 ft 294 kts 60°
2026-04-25 15:24 33.42538 -87.21456 5848 ft 296 kts 77°
2026-04-25 15:25 33.42852 -87.18253 5054 ft 293 kts 85°
2026-04-25 15:25 33.42971 -87.15820 4437 ft 291 kts 86°
2026-04-25 15:25 33.43089 -87.13430 3889 ft 286 kts 86°
2026-04-25 15:25 33.43214 -87.11091 3401 ft 279 kts 86°
2026-04-25 15:26 33.43344 -87.08803 2996 ft 271 kts 86°
2026-04-25 15:26 33.43477 -87.06596 2787 ft 260 kts 86°
2026-04-25 15:26 33.43604 -87.04486 2657 ft 250 kts 86°
2026-04-25 15:26 33.43723 -87.02471 2661 ft 237 kts 86°
2026-04-25 15:27 33.43840 -87.00519 2672 ft 234 kts 86°
2026-04-25 15:27 33.43960 -86.98588 2670 ft 234 kts 85°
2026-04-25 15:27 33.45023 -86.94968 2681 ft 234 kts 52°
2026-04-25 15:28 33.46005 -86.93449 2673 ft 233 kts 51°
2026-04-25 15:28 33.46962 -86.91879 2673 ft 232 kts 54°
2026-04-25 15:28 33.47861 -86.90269 2677 ft 234 kts 55°
2026-04-25 15:28 33.48768 -86.88691 2680 ft 223 kts 53°
2026-04-25 15:29 33.49639 -86.87222 2642 ft 209 kts 53°
2026-04-25 15:29 33.50466 -86.85794 2324 ft 211 kts 54°
2026-04-25 15:29 33.51293 -86.84354 2047 ft 207 kts 54°
2026-04-25 15:29 33.52099 -86.82979 1787 ft 191 kts 54°
2026-04-25 15:30 33.52871 -86.81639 1513 ft 174 kts 54°
2026-04-25 15:30 33.53576 -86.80424 1263 ft 160 kts 54°
2026-04-25 15:30 33.54278 -86.79227 995 ft 158 kts 54°
2026-04-25 15:30 33.54953 -86.78082 809 ft 154 kts 55°
2026-04-25 15:31 33.55594 -86.76958 627 ft 147 kts 55°
2026-04-25 15:31 33.56159 -86.75971 617 ft 110 kts 54°
2026-04-25 15:31 33.56497 -86.75391 626 ft 54 kts 54°
2026-04-25 15:31 33.56644 -86.75131 634 ft 13 kts 59°
2026-04-25 15:32 33.56645 -86.75029 634 ft 13 kts 122°
2026-04-25 15:32 33.56616 -86.74986 633 ft 0 kts 131°
2026-04-25 15:33 33.56593 -86.74956 633 ft 0 kts 131°
2026-04-25 15:33 33.56593 -86.74955 633 ft 0 kts 136°
2026-04-25 15:33 33.56587 -86.74962 632 ft 2 kts 257°
2026-04-25 15:33 33.56588 -86.74992 632 ft 6 kts 267°
2026-04-25 15:34 33.56562 -86.75068 631 ft 11 kts 236°
2026-04-25 15:34 33.56513 -86.75156 628 ft 14 kts 236°
2026-04-25 15:34 33.56443 -86.75281 626 ft 21 kts 236°
2026-04-25 15:34 33.56382 -86.75384 623 ft 24 kts 234°
2026-04-25 15:35 33.56192 -86.75687 618 ft 10 kts 181°
2026-04-25 15:35 33.56126 -86.75642 618 ft 12 kts 143°
2026-04-25 15:35 33.56050 -86.75575 617 ft 13 kts 139°
2026-04-25 15:36 33.56025 -86.75395 619 ft 4 kts 90°
2026-04-25 15:36 33.56031 -86.75371 619 ft 2 kts 52°
2026-04-25 15:36 33.56052 -86.75360 620 ft 4 kts
2026-04-25 15:37 33.56078 -86.75359 620 ft 0 kts